Regional Weather Roundup
Issued by NWS

Home | Current Version | Previous Version | Graphics & Text | Print | Product List | Glossary On
Versions: 1 2 3 4 5 6 7 8 9 10 11 12 13 14 15 16 17 18 19 20 21 22 23 24 25 26 27 28 29 30 31 32 33 34 35 36 37 38 39 40 41 42 43 44 45 46 47 48 49 50
016
ASUS43 KMPX 230201
RWRMN
WEATHER ROUNDUP FOR MINNESOTA
NATIONAL WEATHER SERVICE TWIN CITIES/CHANHASSEN MN
900 PM CDT WED MAR 22 2017


NOTE: "FAIR" INDICATES FEW OR NO CLOUDS BELOW 12,000 FEET WITH NO
SIGNIFICANT WEATHER AND/OR OBSTRUCTIONS TO VISIBILITY. N/A MEANS
CURRENT SKY AND/OR WEATHER CONDITIONS ARE NOT AVAILABLE.

MNZ060>063-068>070-230300-
   Twin Cities Metro

CITY           SKY/WX    TMP DP  RH WIND       PRES   REMARKS
TWIN CITIES    CLOUDY    37  12  35 SE16      30.31F
ST PAUL        CLOUDY    37  14  38 SE13      30.33F
CRYSTAL        CLOUDY    37  10  32 SE13G23   30.30F
BLAINE         CLOUDY    39  12  33 SE10      30.31F
LAKEVILLE      CLOUDY    34  18  51 SE10      30.29F WCI  26
EDEN PRAIRIE   CLOUDY    38  14  37 SE14      30.29F
SOUTH ST PAUL  CLOUDY    37  12  34 SE8G16    30.32F
LAKE ELMO      CLOUDY    36  16  44 SE9       30.33F
$$
MNZ001>005-007-008-013>017-022>024-027-028-230300-
   Northwest Minnesota

CITY           SKY/WX    TMP DP  RH WIND       PRES   REMARKS
BEMIDJI        CLOUDY    30  17  59 SE17      30.17F WCI  18
HALLOCK        CLOUDY    32  23  69 S23G29    30.10F WCI  19
ROSEAU         CLOUDY    30  21  69 S15       30.15S WCI  19
WARROAD        CLOUDY    30  19  64 SE14      30.17F WCI  20
THIEF RVR FALL   N/A    N/A N/A N/A MISG        N/A
CROOKSTON      CLOUDY    34  19  55 S21G28    30.11F WCI  22
FOSSTON        CLOUDY    30  16  55 SE15G24   30.14F WCI  19
DETROIT LAKES  CLOUDY    32  23  69 SE23      30.14F WCI  19
MOORHEAD       CLOUDY    34  21  60 SE18G29   30.12F WCI  23
PARK RAPIDS    CLOUDY    33  13  43 S16       30.19F WCI  23
MAHNOMEN       CLOUDY    32  19  58 SE16G22   30.13F WCI  21
$$
MNZ006-009>011-018-025>026-230300-
   North Central Minnesota

CITY           SKY/WX    TMP DP  RH WIND       PRES   REMARKS
BAUDETTE       CLOUDY    33   9  36 SE13      30.17F WCI  24
FLAG ISLAND    CLOUDY    30  18  59 S18       30.17F WCI  18
INTL FALLS     CLOUDY    33  10  38 SE7       30.24F WCI  27
WASKISH        CLOUDY    34  12  40 SE8       30.20F WCI  27
BIG FORK       CLOUDY    34   9  35 S8        30.23S WCI  27
LONGVILLE      CLOUDY    34  10  37 SE9       30.22F WCI  26
CRANE LAKE     CLOUDY    30   9  40 SE3       30.29F
ORR            CLOUDY    32   5  32 CALM      30.24S
COOK           MOCLDY    32   9  37 SE7       30.27S WCI  26
WALKER         CLOUDY    32  10  39 SE13      30.20S WCI  22
$$
MNZ012-019>021-037-230300-
   Northeast Minnesota

CITY           SKY/WX    TMP DP  RH WIND       PRES   REMARKS
DULUTH         CLOUDY    26  19  74 E12       30.31F WCI  16
ELY            MOCLDY    28  10  47 SE9       30.29S WCI  20
HIBBING        CLOUDY    30  11  45 SE9       30.27S WCI  22
EVELETH        CLOUDY    32   6  33 S9        30.30S WCI  24
DULUTH HARBOR  CLOUDY    30  27  86 NE15      30.36F WCI  19
TWO HARBORS    PTCLDY    28  21  74 E7        30.34S WCI  21
SILVER BAY     CLOUDY    27  19  74 NE7       30.35S WCI  19
GRAND MARAIS     N/A     25  14  63 NE3       30.42F
G MARAIS ARPRT CLOUDY    18   9  68 E3        30.34F
$$
MNZ029>031-032-039>041-046>048-054>057-064-230300-
   West Central Minnesota

CITY           SKY/WX    TMP DP  RH WIND       PRES   REMARKS
FERGUS FALLS   CLOUDY    34  21  60 SE21G29   30.18F WCI  22
WHEATON        CLOUDY    34  25  69 SE23G32   30.14F WCI  22
MORRIS         CLOUDY    34  25  69 SE28G33   30.14F WCI  20
ALEXANDRIA     CLOUDY    33  21  61 SE15G23   30.19F WCI  23
ELBOW LAKE     CLOUDY    33  23  67 E22G29    30.14F WCI  20
WADENA         CLOUDY    30  21  69 SE13G20   30.20S WCI  20
GLENWOOD       CLOUDY    34  21  60 SE18G25   30.20S WCI  23
APPLETON       CLOUDY    36  25  64 SE16      30.15F
BENSON         CLOUDY    37  21  52 S20G26    30.19F
ORTONVILLE     CLOUDY    34  25  69 SE23G30   30.13F WCI  22
MADISON        CLOUDY    37  28  70 SE18      30.15F
WILLMAR        CLOUDY    36  25  64 SE18      30.23F
$$
MNZ033>034-036-042>043-049>051-058-059-230300-
   Central Minnesota

CITY           SKY/WX    TMP DP  RH WIND       PRES   REMARKS
ST CLOUD       CLOUDY    35  18  49 SE13      30.26F WCI  26
SAUK CENTRE    CLOUDY    32  21  64 SE14      30.22F WCI  22
PAYNESVILLE      N/A     34  22  62 SE12      30.24F WCI  25
AITKIN         CLOUDY    36   7  30 SE13      30.25F
PINE RIVER     CLOUDY    34  16  47 SE13      30.26S WCI  25
BRAINERD       CLOUDY    33  14  45 S15       30.25F WCI  23
STAPLES        CLOUDY    30  18  59 SE9G16    30.22F WCI  22
LONG PRAIRIE   CLOUDY    32  21  64 E15G21    30.23F WCI  22
LITTLE FALLS   CLOUDY    34  16  47 SE13      30.26S WCI  25
LITCHFIELD     CLOUDY    36  25  64 SE8       30.26F
BUFFALO        CLOUDY    36  17  45 SE9       30.29F
MAPLE LAKE     CLOUDY    36  22  55 SE8       30.27F
HUTCHINSON     CLOUDY    36  26  67 SE10      30.27F
$$
MNZ037-044-045-052-053-230300-
   East Central Minnesota

CITY           SKY/WX    TMP DP  RH WIND       PRES   REMARKS
PRINCETON      CLOUDY    37  12  35 SE7       30.30S
MORA           PTCLDY    34  12  40 SE5       30.32F WCI  30
CAMBRIDGE      CLOUDY    37  19  48 SE5       30.29F
RUSH CITY      CLOUDY    35  11  37 SE7       30.31F WCI  29
MOOSE LAKE     CLOUDY    34  10  37 SE6       30.30S WCI  29
HINCKLEY       CLOUDY    34  14  44 SE6       30.31F WCI  29
CLOQUET        PTCLDY    28  18  64 E9        30.31S WCI  20
MCGREGOR       CLOUDY    34  12  40 SE9       30.29S WCI  26
$$
MNZ071>073-080-081-089-090-097-098-230300-
   Southwest Minnesota

CITY           SKY/WX    TMP DP  RH WIND       PRES   REMARKS
MONTEVIDEO     CLOUDY    36  25  64 S23G29    30.18F
GRANITE FALLS  CLOUDY    37  27  68 SE21G26   30.19F
CANBY          CLOUDY    36  28  74 E15       30.15F
MARSHALL       CLOUDY    35  26  69 SE18G24   30.17F WCI  24
REDWOOD FALLS  CLOUDY    36  24  62 SE15      30.21F
OLIVIA         CLOUDY    36  25  64 SE15G21   30.21F
PIPESTONE      CLOUDY    36  21  55 S18G26    30.12S
WINDOM         MOCLDY    36  25  64 SE16      30.20S
WORTHINGTON    CLOUDY    36  23  59 SE16G22   30.18F
JACKSON        CLOUDY    34  27  75 SE17      30.21F WCI  23
TRACY          CLOUDY    36  28  72 SE15G21   30.18F
SLAYTON        CLOUDY    33  28  81 SE16      30.17S WCI  22
$$
MNZ065>067-074>077-082>085-091>093-230300-
   South Central Minnesota

CITY           SKY/WX    TMP DP  RH WIND       PRES   REMARKS
MANKATO        CLOUDY    36  24  62 SE13      30.27F
NEW ULM        CLOUDY    36  21  55 SE14      30.25S
ST JAMES       CLOUDY    36  27  69 SE12      30.26R
FAIRMONT       CLOUDY    36  24  62 SE16      30.24F
GLENCOE        CLOUDY    37  26  65 SE9       30.27S
FARIBAULT      CLOUDY    37  21  52 E9        30.28F
OWATONNA       CLOUDY    37  19  48 SE15      30.28F
WASECA         CLOUDY    36  25  64 SE14      30.28F
ALBERT LEA     CLOUDY    36  18  48 SE13      30.27F
$$
MNZ078>079-086>088-094>096-230300-
   Southeast Minnesota

CITY           SKY/WX    TMP DP  RH WIND       PRES   REMARKS
ROCHESTER      CLOUDY    34  20  56 SE13      30.32F WCI  25
RED WING       MOCLDY    37  10  32 SE8       30.34F
STANTON        CLOUDY    37  16  41 SE7       30.30F
DODGE CENTER   CLOUDY    36  21  55 SE12      30.30F
WINONA         CLOUDY    36  10  35 S5        30.38F
AUSTIN         CLOUDY    36  19  51 SE12      30.30F
PRESTON        CLOUDY    35  14  42 SE12      30.33F WCI  26
$$
ABBREVIATIONS USED IN REMARKS
   TC - TEMPERATURES IN CELSIUS
  WCI - WIND CHILL INDEX
   HX - HEAT INDEX
  VSB - VISIBILITY
$$




USA.gov is the U.S. government's official web portal to all federal, state and local government web resources and services.